Hourly Data Report for January 02, 2018

All times are specified in Local Standard Time (LST). Add 1 hour to adjust for Daylight Saving Time where and when it is observed.

OTTAWA INTL A
ONTARIO

45°19'00.000" N
75°40'00.000" W
114.90 m
6106001
71628
YOW

Download Data

Hourly Data (January 2018)
Hourly Data Report for January 2, 2018
Temp Definition
°C
Dew Point Temp Definition
°C
Rel Hum Definition
%
Wind Dir Definition
10's deg

Wind Spd Definition
km/h
Visibility Definition
km
Stn Press Definition
kPa
Hmdx Definition


Wind Chill Definition


Weather Definition


TIME
00:00 Legend Double Dagger -23.3 -26.0 79 29 10 16.1 101.28   -31 LegendNANA
01:00 Legend Double Dagger -24.7 -27.4 79 24 8 24.1 101.29   -32 Clear
02:00 Legend Double Dagger -25.6 -28.5 77 24 7 24.1 101.26   -32 LegendNANA
03:00 Legend Double Dagger -24.4 -27.3 77 28 12 24.1 101.27   -33 LegendNANA
04:00 Legend Double Dagger -25.0 -28.0 76 27 7 24.1 101.28   -31 Mainly Clear
05:00 Legend Double Dagger -27.0 -30.1 76 23 6 24.1 101.23   -33 LegendNANA
06:00 Legend Double Dagger -25.3 -28.3 77 19 8 24.1 101.19   -32 LegendNANA
07:00 Legend Double Dagger -26.0 -29.1 76 17 8 24.1 101.16   -33 Mostly Cloudy
08:00 Legend Double Dagger -25.4 -28.4 76 16 10 9.7 101.02   -34 Snow
09:00 Legend Double Dagger -23.6 -26.5 77 16 10 4.8 100.94   -32 Snow
10:00 Legend Double Dagger -21.7 -24.5 79 19 13 2.4 100.87   -30 Snow
11:00 Legend Double Dagger -20.5 -23.2 79 18 16 1.2 100.73   -30 Snow
12:00 Legend Double Dagger -19.1 -21.6 80 18 8 3.2 100.57   -25 Snow
13:00 Legend Double Dagger -16.9 -19.3 82 18 8 3.2 100.38   -23 Snow
14:00 Legend Double Dagger -15.0 -17.5 81   0 24.1 100.26     Snow
15:00 Legend Double Dagger -13.0 -16.1 78 16 4 16.1 100.22   -16 Snow
16:00 Legend Double Dagger -12.8 -15.7 79 11 5 16.1 100.20   -16 Snow
17:00 Legend Double Dagger -8.4 -12.5 72 24 18 24.1 100.21   -15 LegendNANA
18:00 Legend Double Dagger -7.7 -11.4 75 22 30 9.7 100.21   -17 Snow
19:00 Legend Double Dagger -7.3 -11.0 75 22 31 12.9 100.24   -16 Snow,Blowing Snow
20:00 Legend Double Dagger -7.2 -10.9 75 22 32 12.9 100.27   -16 Blowing Snow
21:00 Legend Double Dagger -7.2 -11.5 72 22 23 24.1 100.26   -15 Blowing Snow
22:00 Legend Double Dagger -7.3 -11.7 71 22 23 16.1 100.27   -15 Cloudy
23:00 Legend Double Dagger -7.6 -12.1 71 22 25 12.9 100.32   -16 Snow

Notes on Data Quality.

Legend

  • E = Estimated
  • M = Missing
  • NA = Not Available
  • ‡ = Partner data that is not subject to review by the National Climate Archives
Date modified: